星链-5387 (STARLINK-5387 )

导读 | 豆包AI

STARLINK-5387是美国太空探索技术公司(SpaceX)星链(Starlink)互联网卫星星座中的一颗卫星,于2022年12月28日发射入轨,属于星链星座第二批组网卫星,主要为全球尤其是偏远地区提供高速互联网接入服务,助力推进星链全球覆盖的部署进程。

Basic Information
目录编号:
54842
目录名称:
STARLINK-5387
国际标识:
2022-177Y
轨道中心:
EARTH
卫星名称:
星链-5387
卫星全名:
星链-5387 (STARLINK-5387 )
卫星状态:
在轨 (已飞行1219 天)
发射日期:
2022-12-28 UTC
国别 :
美国 (US)
星等 :
--
Orbit Information
数据来源 国际轨道数据 AOE轨道数据
星历时间 2026-04-30T13:13:21+0800
10小时前
查看轨道信息
2026-04-30T08:00:00+0800
15小时前
查看轨道信息
半长轴 6861.077km 6861.193km
偏心率 0.0001362 0.0002436
轨道倾角 43.002° 43.006°
近地点辐角 272.444° 292.366°
升交点赤经 201.659° 202.895°
平近点角 87.625° 309.559°
近地点 482.005km 481.384km
远地点 483.875km 484.728km
周期 94.264分钟 94.267分钟
每日圈数 15.276165 15.275779
Detailed Information
固有亮度:
5
最大亮度:
2.5
卫星平台:
Starlink v1.5
覆盖范围:
全球
运营商:
太空探索技术公司
运营商所在国:
美国
制造商(研发单位):
太空探索技术公司
制造商所在国:
美国
使用方式:
暂无
Satellite Introduction
星链(Starlink)计划是由太空探索技术公司(SpaceX)提出的一个巨型低轨卫星互联网星座项目,计划在2019年至2024年间在太空搭建由约1.2万颗卫星组成的“星链”网络,其中1584颗将部署在地球上空550千米处的近地轨道,并从2020年开始工作。该卫星仍在工作。
2D Orbit Map
3D Orbit Map
Orbit Altitude Analysis Chart
Orbit Inclination Analysis Chart
Orbit Comprehensive Analysis Chart
View Comprehensive Chart